Location: Greenwich
(51.4790°N, 0.0090°E)
Time: 12:37:22
(UTC+00:00)

Vanguard 2 - All Passes

Search period start: 05 December 2025 00:00
Search period end: 15 December 2025 00:00
Orbit: 552 x 2898 km, 32.9° (Epoch: 04 December)

Date Brightness Start Highest point End Pass type
(mag) Time Alt. Az. Time Alt. Az. Time Alt. Az.
05 Dec - 08:14:24 10° SSW 08:18:06 16° S 08:22:48 10° SE daylight
05 Dec - 10:21:40 10° SW 10:25:32 14° SSW 10:30:12 10° SSE daylight
06 Dec - 08:26:30 10° SSW 08:29:53 15° S 08:34:02 10° SSE daylight
06 Dec - 10:35:27 10° SSW 10:37:20 11° SSW 10:39:23 10° S daylight
07 Dec - 06:33:58 10° S 06:34:49 10° SSE 06:35:43 10° SSE visible
07 Dec - 08:38:53 10° SSW 08:41:40 13° S 08:44:56 10° SSE daylight
08 Dec - 06:45:41 10° S 06:46:32 10° S 06:47:26 10° SSE visible
08 Dec - 08:52:00 10° SSW 08:53:28 11° S 08:55:04 10° S daylight
